Miscellaneous Local Product
Issued by NWS North Platte, NE

Home | Current Version | Previous Version | Graphics & Text | Print | Product List | Glossary On
Versions: 1 2 3 4 5 6 7 8 9 10 11 12 13 14 15 16 17 18 19 20 21 22 23 24 25 26 27 28 29 30 31 32 33 34 35 36 37 38 39 40 41 42 43 44 45 46 47 48 49 50
000
AXUS43 KLBF 252010
MISLBF


WESTERN AND NORTH CENTRAL NEBRASKA HOURLY WEATHER ROUNDUP
NATIONAL WEATHER SERVICE NORTH PLATTE NE
300 PM CDT THU AUG 25 2016

NOTE: "FAIR" INDICATES FEW OR NO CLOUDS BELOW 12,000 FEET WITH NO
SIGNIFICANT WEATHER AND/OR OBSTRUCTIONS TO VISIBILITY.

NOTE: STATIONS NOT REPORTING VARIABLES SUCH AS SKY/WEATHER OR
PRESSURE ARE PROVIDED BY RAWS AND APRS NETWORKS AND ARE NOT UNDER
NATIONAL WEATHER SERVICE QUALITY CONTROL.

...OBSERVATIONS IN AND NEAR THE EASTERN PANHANDLE OF NEBRASKA...

CITY           SKY/WX    TMP DP  RH WIND       PRES   REMARKS
PINE RIDGE     CLOUDY    62  49  62 NW7       30.27F
CHADRON        CLOUDY    64  47  53 CALM      30.26F
ALLIANCE       SUNNY     68  45  43 E8        30.26F
SIDNEY         MOSUNNY   74  41  30 SE8       30.25F
CRESCENT LAKE    N/A     72  46  38 E6G14       N/A
$$

...OBSERVATIONS IN NORTHERN NEBRASKA AND FAR SOUTHERN SOUTH DAKOTA...

CITY           SKY/WX    TMP DP  RH WIND       PRES   REMARKS
WINNER         FAIR      74  49  41 W13G20    30.20F
VALENTINE      SUNNY     72  44  36 NW10G17   30.22F
THEDFORD       SUNNY     74  48  40 N8        30.23F
AINSWORTH      SUNNY     70  50  49 N8        30.22F
O`NEILL        SUNNY     74  48  39 NW9       30.21S
ORD            SUNNY     76  50  40 N9        30.18F
BROKEN BOW     SUNNY     74  50  42 VRB3      30.20F
VALENTINE NWR    N/A     70  48  45 N7G16       N/A
BUTTE            N/A     69  50  50 NW12        N/A
HALSEY           N/A     74  45  35 NW6G13      N/A
EWING            N/A     73  54  51 N6          N/A
$$

...OBSERVATIONS IN SOUTHWEST NEBRASKA AND FAR NORTHEAST COLORADO...

CITY           SKY/WX    TMP DP  RH WIND       PRES   REMARKS
HOLYOKE        FAIR      79  45  29 E7        30.23F
IMPERIAL       SUNNY     76  43  30 VRB6G18   30.21F
OGALLALA       SUNNY     76  41  28 E9        30.22F
NORTH PLATTE   SUNNY     78  48  34 VRB3      30.20F
MCCOOK         SUNNY     76  51  41 SE8       30.19F
LEXINGTON      SUNNY     77  49  36 N7        30.19F
STAPLETON        N/A     74  51  44 CALM        N/A
GOTHENBURG       N/A     73  46  38 E6          N/A
CALLAWAY         N/A     74  57  55 E6          N/A
$$

...OBSERVATIONS IN CENTRAL LINCOLN COUNTY AREA...

CITY           SKY/WX    TMP DP  RH WIND       PRES   REMARKS
N.P. AIRPORT   SUNNY     78  48  34 VRB3      30.20F
N.P. DOWNTOWN    N/A     74  49  41 NE5G12      N/A
N.P. HILLCREST   N/A     74  48  39 E6G16       N/A
$$

...SOME OBSERVATIONS FROM AROUND THE REGION...

CITY           SKY/WX    TMP DP  RH WIND       PRES   REMARKS
DENVER         MOSUNNY   69  45  41 VRB3      30.24F
LARAMIE        CLOUDY    61  37  41 SE25G37   30.27F
CHEYENNE       PTSUNNY   64  43  46 E6G18     30.29F
SCOTTSBLUFF    MOSUNNY   68  45  43 VRB6      30.27F
RAPID CITY     PTSUNNY   67  41  38 N10       30.25F
BISMARCK       CLOUDY    68  48  48 N12       30.16F
PIERRE         MOSUNNY   71  46  40 NW21      30.17F
SIOUX FALLS    MOSUNNY   73  55  53 W10G18    30.15S
OMAHA          PTSUNNY   75  61  61 N6        30.13F
GRAND ISLAND   SUNNY     76  52  43 VRB6      30.17F
KANSAS CITY    PTSUNNY   82  69  64 W3        30.06F
WICHITA        PTSUNNY   85  68  56 N8G16     30.08S
OKLAHOMA CITY  PTSUNNY   91  65  41 S9        30.04F HX  93
DALLAS         PTSUNNY   93  67  42 VRB3      30.03F HX  96
AMARILLO       MOSUNNY   79  61  53 N8        30.15F
DODGE CITY     PTSUNNY   74  62  66 VRB6      30.16F
HAYS           PTSUNNY   75  54  46 E7        30.15F
GOODLAND       SUNNY     75  46  35 SE13      30.21F
$$




USA.gov is the U.S. government's official web portal to all federal, state and local government web resources and services.